Weather History for KLAR - January, 2012

Change the Weather History Date:

Saturday, January 14, 2012

  Actual Average Record
Temperature  
Mean Temperature 33 °F 22 °F  
Max Temperature 46 °F 34 °F 53 °F (1969)
Min Temperature 20 °F 10 °F -23 °F (2013)
Degree Days  
Heating Degree Days 32 43  
Month to date heating degree days 551 603  
Since 1 July heating degree days 4214 4276  
Cooling Degree Days 0 0  
Month to date cooling degree days 0 0  
Year to date cooling degree days 0 0  
Moisture  
Dew Point 9 °F    
Average Humidity 34    
Maximum Humidity 46    
Minimum Humidity 22    
Precipitation  
Precipitation 0.00 in 0.01 in 0.25 in (1967)
Month to date precipitation T 0.12  
Year to date precipitation T 0.12  
Sea Level Pressure  
Sea Level Pressure 30.02 in    
Wind  
Wind Speed 19 mph (SW)    
Max Wind Speed 33 mph    
Max Gust Speed 41 mph    
Visibility 10 miles    
Events      
T = Trace of Precipitation, MM = Missing Value Source: NWS Daily Summary

Daily Weather History Graph

Daily Weather History Graph

Search for Another Location

Airport or City:

Trip Planner

Search our weather history database for the weather conditions in past years. The results will help you decide how hot, cold, wet, or windy it might be!

Date:

Astronomy

Jan. 14, 2012 Rise Set
Actual Time 7:26 AM MST 4:56 PM MST
Civil Twilight 6:56 AM MST 5:27 PM MST
Nautical Twilight 6:22 AM MST 6:01 PM MST
Astronomical Twilight 5:49 AM MST 6:34 PM MST
Moon 11:25 PM MST (1/14) 10:09 AM MST (1/14)
Length of Visible Light 10h 30m
Length of Day
9h 29m
Waning Gibbous, 68% of the Moon is Illuminated
Jan 14
Waning Gibbous
Jan 16
Last Quarter
Jan 23
New
Jan 30
First Quarter
Feb 7
Full

Hourly Weather History & Observations

Time (MST) Temp. Windchill Dew Point Humidity Pressure Visibility Wind Dir Wind Speed Gust Speed Precip Events Conditions
12:53 AM 26.1 °F 12.3 °F 6.1 °F 43% 30.09 in 10.0 mi WNW 19.6 mph 23.0 mph N/A   Clear
1:53 AM 25.0 °F 10.9 °F 6.1 °F 45% 30.09 in 10.0 mi West 19.6 mph 24.2 mph N/A   Partly Cloudy
2:53 AM 28.0 °F 14.6 °F 6.1 °F 39% 30.09 in 10.0 mi West 20.7 mph 35.7 mph N/A   Clear
3:53 AM 30.9 °F 18.4 °F 7.0 °F 37% 30.09 in 10.0 mi WSW 20.7 mph 31.1 mph N/A   Clear
4:53 AM 30.0 °F 19.5 °F 8.1 °F 40% 30.13 in 10.0 mi WSW 13.8 mph - N/A   Overcast
5:53 AM 28.9 °F 20.4 °F 8.1 °F 41% 30.16 in 10.0 mi South 9.2 mph - N/A   Scattered Clouds
6:53 AM 28.0 °F 15.3 °F 8.1 °F 43% 30.14 in 10.0 mi SW 18.4 mph 23.0 mph N/A   Clear
7:53 AM 28.0 °F 17.0 °F 9.0 °F 45% 30.19 in 10.0 mi SW 13.8 mph - N/A   Clear
8:53 AM 34.0 °F 22.7 °F 9.0 °F 35% 30.14 in 10.0 mi WSW 19.6 mph 28.8 mph N/A   Clear
9:53 AM 35.1 °F 24.1 °F 10.0 °F 35% 30.12 in 10.0 mi SW 19.6 mph - N/A   Mostly Cloudy
10:53 AM 39.0 °F 27.8 °F 10.0 °F 30% 30.09 in 10.0 mi WSW 26.5 mph 34.5 mph N/A   Partly Cloudy
11:53 AM 42.1 °F 32.3 °F 9.0 °F 26% 30.07 in 10.0 mi WSW 24.2 mph 33.4 mph N/A   Clear
12:53 PM 44.1 °F 34.8 °F 8.1 °F 23% 30.01 in 10.0 mi WSW 25.3 mph 31.1 mph N/A   Clear
1:53 PM 43.0 °F 36.0 °F 9.0 °F 25% 29.98 in 10.0 mi SW 13.8 mph 23.0 mph N/A   Clear
2:53 PM 44.1 °F 35.0 °F 8.1 °F 23% 29.92 in 10.0 mi WSW 24.2 mph 39.1 mph N/A   Clear
3:53 PM 43.0 °F 33.1 °F 10.9 °F 27% 29.91 in 10.0 mi SSW 26.5 mph 32.2 mph N/A   Clear
4:53 PM 39.0 °F 31.4 °F 10.0 °F 30% 29.96 in 10.0 mi SSE 12.7 mph - N/A   Clear
5:53 PM 37.9 °F 29.2 °F 10.0 °F 32% 29.98 in 10.0 mi SSE 15.0 mph 19.6 mph N/A   Clear
6:53 PM 37.0 °F 29.8 °F 10.0 °F 33% 29.98 in 10.0 mi SW 10.4 mph - N/A   Clear
7:53 PM 36.0 °F 28.5 °F 10.0 °F 34% 29.99 in 10.0 mi SW 10.4 mph 20.7 mph N/A   Clear
8:53 PM 36.0 °F 26.3 °F 8.1 °F 31% 29.93 in 10.0 mi WSW 16.1 mph 25.3 mph N/A   Clear
9:53 PM 37.9 °F 33.5 °F 8.1 °F 29% 29.89 in 10.0 mi Variable 5.8 mph - N/A   Clear
10:53 PM 36.0 °F 23.5 °F 8.1 °F 31% 29.80 in 10.0 mi WSW 27.6 mph 35.7 mph N/A   Clear
11:53 PM 37.0 °F 24.1 °F 7.0 °F 29% 29.77 in 10.0 mi WSW 32.2 mph 41.4 mph N/A   Clear